Retour au catalogue

STARLINK-34580

ActifCommunicationsSSO
NORAD 65808·PAYLOAD·🇺🇸 United States

Lancé Sep 26, 2025 depuis Vandenberg Space Force Base

Loading…

Prochains Passages (prochaines 24 heures)

TLE

FraisSource: CelesTrak SupGP

Époque: Sep 15, 2026, 03:23 UTC

1 65808C 25218T   26258.14145833 -.00006508  00000+0 -20198-3 0  2588
2 65808  97.2848 115.6099 0001752  93.1707 269.2947 15.33449484    15

Suivez STARLINK-34580 en temps réel avec AllMySat

Download on the App Store